When you browse on this site, cookies collect data to enhance your experience and personalize the content and advertising you see.
Visit our Privacy Policy to learn more. By continuing to use the site, you agree to this use of cookies and data.
  • En España
  • Lista de países
  • Para 7 días
  • Temperatura del agua
  • Mapa Satelital
  • El tiempo en el mapa
  • Informadores
  • user-avatar
    Iniciar sesión

    Tiempo cada hora Caltenco

    Hoy, 21 Mayo, Martes

    Tiempo Temperatura Precipitaciones Viento Presión Humedad
    00:00 +20°C° 0 mm 2 mps 598 mmHg 54%
    01:00 +19°C° 0 mm 2 mps 597 mmHg 54%
    02:00 +20°C° 0 mm 1 mps 597 mmHg 55%
    03:00 +19°C° 0 mm 1 mps 597 mmHg 56%
    04:00 +19°C° 0 mm 1 mps 597 mmHg 57%
    05:00 +19°C° 0 mm 1 mps 597 mmHg 56%
    06:00 +20°C° 0 mm 1 mps 597 mmHg 58%
    07:00 +20°C° 0 mm 2 mps 597 mmHg 60%
    08:00 +21°C° 0 mm 2 mps 597 mmHg 62%
    09:00 +24°C° 0 mm 2 mps 598 mmHg 56%
    10:00 +25°C° 0 mm 2 mps 598 mmHg 49%
    11:00 +27°C° 0 mm 2 mps 599 mmHg 43%
    12:00 +28°C° 0 mm 2 mps 599 mmHg 39%
    13:00 +29°C° 0 mm 2 mps 598 mmHg 35%
    14:00 +30°C° 0 mm 2 mps 598 mmHg 32%
    15:00 +29°C° 0.5 mm 2 mps 598 mmHg 36%
    16:00 +28°C° 0.5 mm 2 mps 597 mmHg 40%
    17:00 +27°C° 0.5 mm 1 mps 597 mmHg 45%
    18:00 +25°C° 3.4 mm 2 mps 597 mmHg 53%
    19:00 +24°C° 3.4 mm 2 mps 597 mmHg 60%
    20:00 +21°C° 3.4 mm 3 mps 597 mmHg 68%
    21:00 +21°C° 0.1 mm 2 mps 597 mmHg 68%
    22:00 +22°C° 0.1 mm 1 mps 598 mmHg 67%
    23:00 +20°C° 0.1 mm 0 mps 598 mmHg 66%

    Mañana, 22 Mayo, Miércoles

    Tiempo Temperatura Precipitaciones Viento Presión Humedad
    00:00 +19°C° 0 mm 0 mps 598 mmHg 68%
    01:00 +19°C° 0 mm 0 mps 597 mmHg 70%
    02:00 +20°C° 0 mm 1 mps 597 mmHg 72%
    03:00 +18°C° 0 mm 0 mps 596 mmHg 74%
    04:00 +17°C° 0 mm 0 mps 596 mmHg 76%
    05:00 +17°C° 0 mm 0 mps 596 mmHg 78%
    06:00 +20°C° 0 mm 1 mps 597 mmHg 71%
    07:00 +21°C° 0 mm 1 mps 598 mmHg 63%
    08:00 +23°C° 0 mm 1 mps 599 mmHg 56%
    09:00 +24°C° 0 mm 1 mps 599 mmHg 49%
    10:00 +26°C° 0 mm 1 mps 600 mmHg 43%
    11:00 +27°C° 0 mm 1 mps 600 mmHg 37%
    12:00 +28°C° 0 mm 2 mps 600 mmHg 35%
    13:00 +28°C° 0 mm 2 mps 599 mmHg 34%
    14:00 +29°C° 0 mm 3 mps 599 mmHg 32%
    15:00 +28°C° 0 mm 3 mps 599 mmHg 33%
    16:00 +28°C° 0 mm 3 mps 599 mmHg 34%
    17:00 +27°C° 0 mm 3 mps 598 mmHg 35%
    18:00 +26°C° 0 mm 3 mps 599 mmHg 40%
    19:00 +25°C° 0 mm 3 mps 599 mmHg 45%
    20:00 +24°C° 0 mm 3 mps 599 mmHg 50%
    21:00 +22°C° 0 mm 3 mps 599 mmHg 56%
    22:00 +21°C° 0 mm 3 mps 599 mmHg 62%
    23:00 +20°C° 0 mm 3 mps 599 mmHg 68%

    Pasado mañana, 23 Mayo, Jueves

    Tiempo Temperatura Precipitaciones Viento Presión Humedad
    00:00 +20°C° 0 mm 2 mps 599 mmHg 69%
    01:00 +19°C° 0 mm 2 mps 598 mmHg 71%
    02:00 +20°C° 0 mm 1 mps 598 mmHg 72%
    03:00 +19°C° 0 mm 1 mps 598 mmHg 72%
    04:00 +19°C° 0 mm 1 mps 597 mmHg 72%
    05:00 +18°C° 0 mm 1 mps 597 mmHg 72%
    06:00 +20°C° 0 mm 1 mps 598 mmHg 65%
    07:00 +22°C° 0 mm 1 mps 599 mmHg 58%
    08:00 +21°C° 0 mm 0 mps 600 mmHg 50%
    09:00 +25°C° 0 mm 1 mps 600 mmHg 44%
    10:00 +26°C° 0 mm 1 mps 601 mmHg 38%
    11:00 +28°C° 0 mm 1 mps 601 mmHg 32%
    12:00 +28°C° 0 mm 2 mps 601 mmHg 32%
    13:00 +29°C° 0 mm 2 mps 600 mmHg 31%
    14:00 +29°C° 0 mm 3 mps 600 mmHg 30%
    15:00 +28°C° 0 mm 3 mps 600 mmHg 35%
    16:00 +27°C° 0 mm 3 mps 599 mmHg 39%
    17:00 +26°C° 0 mm 3 mps 599 mmHg 44%
    18:00 +25°C° 0.1 mm 4 mps 599 mmHg 50%
    19:00 +23°C° 0.1 mm 4 mps 599 mmHg 55%
    20:00 +22°C° 0.1 mm 5 mps 600 mmHg 61%
    21:00 +21°C° 0.1 mm 4 mps 600 mmHg 64%
    22:00 +20°C° 0.1 mm 4 mps 600 mmHg 66%
    23:00 +20°C° 0.1 mm 3 mps 600 mmHg 69%

    24 Mayo, Viernes

    Tiempo Temperatura Precipitaciones Viento Presión Humedad
    00:00 +19°C° 0 mm 3 mps 599 mmHg 69%
    01:00 +19°C° 0 mm 2 mps 599 mmHg 69%
    02:00 +19°C° 0 mm 2 mps 598 mmHg 69%
    03:00 +19°C° 0 mm 1 mps 598 mmHg 70%
    04:00 +19°C° 0 mm 1 mps 598 mmHg 71%
    05:00 +18°C° 0 mm 1 mps 598 mmHg 73%
    06:00 +20°C° 0 mm 1 mps 599 mmHg 64%
    07:00 +21°C° 0 mm 1 mps 600 mmHg 56%
    08:00 +23°C° 0 mm 1 mps 601 mmHg 47%
    09:00 +24°C° 0 mm 1 mps 601 mmHg 43%
    10:00 +26°C° 0 mm 1 mps 601 mmHg 39%
    11:00 +27°C° 0 mm 2 mps 602 mmHg 35%
    12:00 +27°C° 0 mm 2 mps 601 mmHg 35%
    13:00 +27°C° 0 mm 2 mps 601 mmHg 34%
    14:00 +27°C° 0 mm 3 mps 600 mmHg 34%
    15:00 +27°C° 0 mm 2 mps 600 mmHg 38%
    16:00 +26°C° 0 mm 2 mps 600 mmHg 42%
    17:00 +25°C° 0 mm 2 mps 599 mmHg 45%
    18:00 +24°C° 0.1 mm 2 mps 600 mmHg 51%
    19:00 +22°C° 0.1 mm 3 mps 600 mmHg 57%
    20:00 +21°C° 0.1 mm 3 mps 600 mmHg 63%
    21:00 +21°C° 0.1 mm 3 mps 600 mmHg 64%
    22:00 +20°C° 0.1 mm 3 mps 600 mmHg 66%
    23:00 +20°C° 0.1 mm 3 mps 600 mmHg 67%

    25 Mayo, Sábado

    Tiempo Temperatura Precipitaciones Viento Presión Humedad
    00:00 +19°C° 0 mm 3 mps 600 mmHg 67%
    01:00 +19°C° 0 mm 2 mps 599 mmHg 67%
    02:00 +19°C° 0 mm 2 mps 599 mmHg 67%
    03:00 +18°C° 0 mm 2 mps 599 mmHg 67%
    04:00 +18°C° 0 mm 2 mps 599 mmHg 67%
    05:00 +17°C° 0 mm 2 mps 598 mmHg 66%
    06:00 +19°C° 0 mm 2 mps 599 mmHg 58%
    07:00 +20°C° 0 mm 2 mps 601 mmHg 50%
    08:00 +23°C° 0 mm 2 mps 602 mmHg 42%
    09:00 +24°C° 0 mm 2 mps 602 mmHg 38%
    10:00 +26°C° 0 mm 2 mps 602 mmHg 34%
    11:00 +27°C° 0 mm 2 mps 602 mmHg 30%
    12:00 +28°C° 0 mm 3 mps 602 mmHg 31%
    13:00 +28°C° 0 mm 3 mps 601 mmHg 31%
    14:00 +28°C° 0 mm 4 mps 601 mmHg 31%
    15:00 +27°C° 0 mm 4 mps 601 mmHg 36%
    16:00 +26°C° 0 mm 4 mps 600 mmHg 41%
    17:00 +25°C° 0 mm 5 mps 600 mmHg 46%
    18:00 +23°C° 0 mm 5 mps 600 mmHg 51%
    19:00 +22°C° 0 mm 5 mps 600 mmHg 56%
    20:00 +21°C° 0 mm 5 mps 601 mmHg 61%
    21:00 +20°C° 0 mm 4 mps 600 mmHg 63%
    22:00 +19°C° 0 mm 4 mps 600 mmHg 65%
    23:00 +19°C° 0 mm 3 mps 600 mmHg 67%

    26 Mayo, Domingo

    Tiempo Temperatura Precipitaciones Viento Presión Humedad
    00:00 +18°C° 0 mm 3 mps 600 mmHg 67%
    01:00 +17°C° 0 mm 2 mps 599 mmHg 68%
    02:00 +17°C° 0 mm 2 mps 599 mmHg 68%
    03:00 +17°C° 0 mm 2 mps 599 mmHg 68%
    04:00 +16°C° 0 mm 2 mps 599 mmHg 68%
    05:00 +16°C° 0 mm 2 mps 599 mmHg 67%
    06:00 +18°C° 0 mm 2 mps 600 mmHg 57%
    07:00 +20°C° 0 mm 2 mps 601 mmHg 48%
    08:00 +23°C° 0 mm 2 mps 602 mmHg 38%
    09:00 +25°C° 0 mm 2 mps 602 mmHg 32%
    10:00 +26°C° 0 mm 2 mps 603 mmHg 27%
    11:00 +28°C° 0 mm 2 mps 603 mmHg 21%
    12:00 +29°C° 0 mm 3 mps 603 mmHg 21%
    13:00 +29°C° 0 mm 3 mps 603 mmHg 21%
    14:00 +30°C° 0 mm 4 mps 602 mmHg 21%
    15:00 +28°C° 0 mm 5 mps 602 mmHg 27%
    16:00 +27°C° 0 mm 6 mps 601 mmHg 34%
    17:00 +26°C° 0 mm 7 mps 601 mmHg 40%
    18:00 +23°C° 0 mm 6 mps 601 mmHg 47%
    19:00 +22°C° 0 mm 5 mps 601 mmHg 54%
    20:00 +20°C° 0 mm 5 mps 601 mmHg 61%
    21:00 +19°C° 0 mm 4 mps 601 mmHg 63%
    22:00 +19°C° 0 mm 4 mps 600 mmHg 65%
    23:00 +18°C° 0 mm 3 mps 600 mmHg 67%
    Mostrar más